Date String (YYYY-MM-DD hh:mm:ss) UTC,Instrument flags,absolute air pressure of the measurement (hPa),sample flow rate (lpm),inlet stack bypass flow (lpm),air temperature of the measurement (°C),ambient temperature measured by the external sensor (°C),aerosol sample conditioner tube jacket temperature (°C),OPC LED temperature (°C),internal box temperature (°C),relative humidity of the measurement (%),span deviation,mass concentration of particles derived from Lorenz-Mie calculation of OPC scattering (μg/m³),mass concentration of particles derived from Lorenz-Mie calculation of OPC scattering (μg/m³),mass concentration of particles derived from Lorenz-Mie calculation of OPC scattering (μg/m³)
DateTimeUTC,F1_M11,P_M11,Q1_M11,Q2_M11,T1_M11,T2_M11,T3_M11,T4_M11,T5_M11,U1_M11,ZSPAN_M11,X2_M11,X0_M11,X1_M11
2024-01-08 04:00:00,SystemResetWarning,0816.1,4.99,000.00,019.3,018.7,000.0,027.7,020.6,9.4,0000.0,0002.24,0004.75,0001.68
2024-01-08 04:01:00,SystemResetWarning,0816.1,5.01,000.00,019.3,018.7,000.0,027.7,020.6,9.4,0000.0,0002.26,0004.73,0001.69
2024-01-08 04:02:00,SystemResetWarning,0816.1,5.01,000.00,019.3,018.7,000.0,027.7,020.6,9.4,0000.0,0002.20,0004.67,0001.69
2024-01-08 04:03:00,SystemResetWarning,0816.1,4.99,000.00,019.3,018.7,000.0,027.7,020.6,9.4,0000.0,0002.19,0004.71,0001.69
2024-01-08 04:04:00,SystemResetWarning,0816.1,4.99,000.00,019.3,018.7,000.0,027.7,020.6,9.4,0000.0,0002.14,0004.59,0001.69
2024-01-08 04:05:00,SystemResetWarning,0816.1,5.00,000.00,019.3,018.7,000.0,027.7,020.6,9.5,0000.0,0002.16,0005.21,0001.67
2024-01-08 04:06:00,SystemResetWarning,0816.1,5.01,000.00,019.3,018.7,000.0,027.7,020.6,9.5,0000.0,0002.17,0004.02,0001.67
2024-01-08 04:07:00,SystemResetWarning,0816.1,5.00,000.00,019.3,018.7,000.0,027.7,020.6,9.6,0000.0,0002.17,0003.92,0001.67
2024-01-08 04:08:00,SystemResetWarning,0816.2,5.00,000.00,019.3,018.7,000.0,027.7,020.6,9.6,0000.0,0002.15,0003.89,0001.65
2024-01-08 04:09:00,SystemResetWarning,0816.2,4.98,000.00,019.3,018.7,000.0,027.7,020.6,9.7,0000.0,0002.16,0003.89,0001.65
2024-01-08 04:10:00,SystemResetWarning,0816.2,5.00,000.00,019.3,018.7,000.0,027.7,020.6,9.7,0000.0,0002.19,0003.97,0001.65
2024-01-08 04:11:00,SystemResetWarning,0816.2,5.01,000.00,019.3,018.7,000.0,027.7,020.6,9.7,0000.0,0002.18,0004.65,0001.65
2024-01-08 04:12:00,SystemResetWarning,0816.2,5.00,000.00,019.3,018.7,000.0,027.7,020.6,9.7,0000.0,0002.12,0004.77,0001.64
2024-01-08 04:13:00,SystemResetWarning,0816.2,5.00,000.00,019.3,018.7,000.0,027.7,020.6,9.7,0000.0,0002.09,0004.91,0001.62
2024-01-08 04:14:00,SystemResetWarning,0816.2,4.99,000.00,019.3,018.7,000.0,027.7,020.6,9.7,0000.0,0002.11,0005.37,0001.60
2024-01-08 04:15:00,SystemResetWarning,0816.2,5.00,000.00,019.3,018.7,000.0,027.7,020.6,9.8,0000.0,0002.12,0005.40,0001.58
2024-01-08 04:16:00,SystemResetWarning,0816.2,5.01,000.00,019.3,018.7,000.0,027.7,020.6,9.8,0000.0,0002.12,0004.87,0001.58
2024-01-08 04:17:00,SystemResetWarning,0816.2,5.01,000.00,019.3,018.7,000.0,027.7,020.6,9.8,0000.0,0002.14,0004.96,0001.58
2024-01-08 04:18:00,SystemResetWarning,0816.2,5.00,000.00,019.3,018.7,000.0,027.7,020.6,9.9,0000.0,0002.14,0004.96,0001.57
2024-01-08 04:19:00,SystemResetWarning,0816.2,5.00,000.00,019.3,018.7,000.0,027.7,020.6,9.9,0000.0,0002.16,0004.99,0001.58
2024-01-08 04:20:00,SystemResetWarning,0816.2,5.00,000.00,019.3,018.7,000.0,027.7,020.6,9.9,0000.0,0002.20,0005.16,0001.58
2024-01-08 04:21:00,SystemResetWarning,0816.2,5.00,000.00,019.3,018.7,000.0,027.7,020.6,10.0,0000.0,0002.21,0005.30,0001.57
2024-01-08 04:22:00,SystemResetWarning,0816.2,4.99,000.00,019.3,018.7,000.0,027.7,020.6,10.0,0000.0,0002.19,0004.60,0001.56
2024-01-08 04:23:00,SystemResetWarning,0816.2,5.00,000.00,019.3,018.7,000.0,027.7,020.6,10.1,0000.0,0002.18,0004.34,0001.57
2024-01-08 04:24:00,SystemResetWarning,0816.2,5.00,000.00,019.3,018.7,000.0,027.7,020.6,10.1,0000.0,0002.17,0004.09,0001.57
2024-01-08 04:25:00,SystemResetWarning,0816.2,5.00,000.00,019.3,018.7,000.0,027.7,020.6,10.1,0000.0,0002.09,0003.45,0001.57
2024-01-08 04:26:00,SystemResetWarning,0816.3,5.00,000.00,019.3,018.7,000.0,027.7,020.6,10.1,0000.0,0002.08,0003.41,0001.58
2024-01-08 04:27:00,SystemResetWarning,0816.3,5.00,000.00,019.3,018.7,000.0,027.7,020.6,10.1,0000.0,0002.07,0003.51,0001.59
2024-01-08 04:28:00,SystemResetWarning,0816.2,5.00,000.00,019.3,018.7,000.0,027.7,020.6,10.2,0000.0,0002.06,0003.48,0001.59
2024-01-08 04:29:00,SystemResetWarning,0816.3,5.00,000.00,019.3,018.7,000.0,027.7,020.6,10.3,0000.0,0002.10,0003.57,0001.60
2024-01-08 04:30:00,SystemResetWarning,0816.2,5.00,000.00,019.3,018.6,000.0,027.7,020.6,10.3,0000.0,0002.07,0003.60,0001.57
2024-01-08 04:31:00,SystemResetWarning,0816.2,5.00,000.00,019.3,018.7,000.0,027.7,020.6,10.3,0000.0,0002.01,0003.44,0001.56
2024-01-08 04:32:00,SystemResetWarning,0816.2,4.99,000.00,019.3,018.7,000.0,027.7,020.6,10.4,0000.0,0001.98,0003.22,0001.57
2024-01-08 04:33:00,SystemResetWarning,0816.2,5.00,000.00,019.3,018.7,000.0,027.7,020.5,10.5,0000.0,0002.01,0003.55,0001.57
2024-01-08 04:34:00,SystemResetWarning,0816.2,5.00,000.00,019.3,018.7,000.0,027.7,020.5,10.6,0000.0,0001.99,0003.96,0001.56
2024-01-08 04:35:00,SystemResetWarning,0816.2,5.00,000.00,019.3,018.7,000.0,027.7,020.5,10.6,0000.0,0001.99,0003.93,0001.56
2024-01-08 04:36:00,SystemResetWarning,0816.2,5.00,000.00,019.3,018.7,000.0,027.7,020.6,10.7,0000.0,0002.04,0004.41,0001.55
2024-01-08 04:37:00,SystemResetWarning,0816.2,5.00,000.00,019.3,018.7,000.0,027.7,020.5,10.7,0000.0,0002.05,0004.46,0001.54
2024-01-08 04:38:00,SystemResetWarning,0816.2,5.00,000.00,019.3,018.6,000.0,027.7,020.5,10.7,0000.0,0002.03,0004.28,0001.52
2024-01-08 04:39:00,SystemResetWarning,0816.2,5.01,000.00,019.3,018.6,000.0,027.6,020.5,10.7,0000.0,0001.99,0004.12,0001.52
2024-01-08 04:40:00,SystemResetWarning,0816.2,5.00,000.00,019.3,018.6,000.0,027.6,020.5,10.7,0000.0,0001.94,0005.22,0001.52
2024-01-08 04:41:00,SystemResetWarning,0816.3,5.00,000.00,019.3,018.6,000.0,027.6,020.5,10.8,0000.0,0001.95,0005.60,0001.53
2024-01-08 04:42:00,SystemResetWarning,0816.3,5.00,000.00,019.3,018.6,000.0,027.6,020.5,10.8,0000.0,0001.99,0005.72,0001.54
2024-01-08 04:43:00,SystemResetWarning,0816.4,5.00,000.00,019.3,018.6,000.0,027.6,020.5,10.9,0000.0,0002.02,0005.77,0001.54
2024-01-08 04:44:00,SystemResetWarning,0816.3,5.00,000.00,019.3,018.6,000.0,027.6,020.6,11.0,0000.0,0001.97,0005.48,0001.53
2024-01-08 04:45:00,SystemResetWarning,0816.3,5.00,000.00,019.3,018.6,000.0,027.6,020.6,11.0,0000.0,0001.97,0004.85,0001.53
2024-01-08 04:46:00,SystemResetWarning,0816.4,4.98,000.00,019.3,018.6,000.0,027.6,020.6,11.1,0000.0,0001.99,0004.91,0001.53
2024-01-08 04:47:00,SystemResetWarning,0816.3,4.99,000.00,019.3,018.6,000.0,027.6,020.5,11.1,0000.0,0001.95,0004.56,0001.53
2024-01-08 04:48:00,SystemResetWarning,0816.4,5.01,000.00,019.3,018.6,000.0,027.6,020.5,11.2,0000.0,0001.93,0004.46,0001.53
2024-01-08 04:49:00,SystemResetWarning,0816.3,5.01,000.00,019.3,018.6,000.0,027.6,020.5,11.2,0000.0,0001.91,0004.43,0001.53
2024-01-08 04:50:00,SystemResetWarning,0816.4,5.01,000.00,019.2,018.6,000.0,027.6,020.5,11.3,0000.0,0001.92,0004.48,0001.53
2024-01-08 04:51:00,SystemResetWarning,0816.3,5.00,000.00,019.2,018.6,000.0,027.6,020.5,11.3,0000.0,0001.96,0003.94,0001.53
2024-01-08 04:52:00,SystemResetWarning,0816.4,5.00,000.00,019.2,018.6,000.0,027.6,020.5,11.3,0000.0,0001.98,0003.85,0001.53
2024-01-08 04:53:00,SystemResetWarning,0816.4,4.99,000.00,019.2,018.6,000.0,027.6,020.5,11.3,0000.0,0001.97,0004.01,0001.53
2024-01-08 04:54:00,SystemResetWarning,0816.4,5.00,000.00,019.3,018.6,000.0,027.6,020.6,11.4,0000.0,0002.01,0004.38,0001.52
2024-01-08 04:55:00,SystemResetWarning,0816.4,5.00,000.00,019.2,018.6,000.0,027.6,020.6,11.4,0000.0,0002.05,0004.59,0001.52
2024-01-08 04:56:00,SystemResetWarning,0816.4,5.01,000.00,019.2,018.6,000.0,027.6,020.6,11.4,0000.0,0002.06,0004.56,0001.52
2024-01-08 04:57:00,SystemResetWarning,0816.4,5.00,000.00,019.2,018.6,000.0,027.6,020.5,11.5,0000.0,0002.07,0004.54,0001.52
2024-01-08 04:58:00,SystemResetWarning,0816.4,5.00,000.00,019.2,018.6,000.0,027.6,020.5,11.5,0000.0,0002.06,0004.51,0001.53
2024-01-08 04:59:00,SystemResetWarning,0816.4,5.00,000.00,019.2,018.6,000.0,027.6,020.5,11.5,0000.0,0002.06,0004.44,0001.54
